Flag for Austria Weather past 2 weeks in Lustenau, Vorarlberg, Austria

Now
61 °F

Fog.


Feels Like: 61 °F
Forecast: 60 / 75 °F
Wind: 2 mph from North

Location: Saint Gallen-Altenrhein

Current Time: Aug 2, 2014 at 3:13:41 AM

Latest Report: Aug 2, 2014 at 2:20 AM


Visibility: 2 mi

Pressure: 29.80 "Hg

Humidity: 100%

Dew point: 61 °F

Location of LustenauLocation

Historic Weather in Lustenau — Graph

°F

Lustenau temperature yesterday

Maximum temperature yesterday: 73 °F (at 5:20 PM)
Minimum temperature yesterday: 57 °F (at 4:50 AM)
Average temperature yesterday: 65 °F

Past Weeks' High & Low Weather Summary

 TemperatureHumidityPressure
High86 °F (Jul 19, 4:50 PM)100% (Jul 21, 6:20 AM)30.15 "Hg (Jul 21, 6:20 AM)
Low55 °F (Jul 19, 5:20 AM)20% (Jul 18, 7:20 PM)29.77 "Hg (Jul 28, 4:50 PM)
Average67 °F79%29.93 "Hg
* Reported Jul 18 1:20 AM — Aug 2 1:50 AM, Lustenau, Weather by CustomWeather, © 2014

Note: Actual official high and low records may vary slightly from our data, if they occured in-between our weather recording intervals... More about our weather records

Advertising

Lustenau weather history for previous 24 hours

 ConditionsComfort  
Time TempWeatherWind HumidityBarometerVisibility
1:50 AM
Aug 2
63 °FFog.1 mph94%29.83 "Hg1 mi
1:20 AM63 °FFog.1 mph94%29.83 "Hg1 mi
12:50 AM63 °FFog.3 mph94%29.83 "Hg1 mi
12:20 AM64 °FFog.2 mph94%29.83 "Hg1 mi
11:50 PM
Aug 1
64 °FFog.1 mph94%29.86 "Hg2 mi
11:20 PM64 °FFog.1 mph94%29.83 "Hg3 mi
10:50 PM64 °FMild.2 mph94%29.83 "Hg3 mi
10:20 PM66 °FMild.2 mph94%29.83 "Hg4 mi
9:50 PM66 °FPassing clouds.2 mph94%29.83 "HgN/A
9:20 PM68 °FPassing clouds.2 mph88%29.83 "HgN/A
8:50 PM70 °FPartly sunny.5 mph83%29.83 "HgN/A
8:20 PM72 °FSunny.1 mph78%29.83 "Hg10 mi
7:50 PM72 °FSunny.3 mph73%29.83 "Hg10 mi
7:20 PM73 °FSunny.6 mph69%29.83 "Hg10 mi
6:50 PM73 °FSunny.6 mph61%29.83 "Hg10 mi
6:20 PM73 °FScattered clouds.7 mph61%29.83 "HgN/A
5:50 PM73 °FScattered clouds.6 mph65%29.83 "HgN/A
5:20 PM73 °FScattered clouds.6 mph69%29.86 "HgN/A
4:50 PM72 °FScattered clouds.6 mph69%29.86 "HgN/A
4:20 PM72 °FScattered clouds.6 mph69%29.86 "HgN/A
3:50 PM72 °FScattered clouds.6 mph73%29.86 "HgN/A
3:20 PM72 °FPartly sunny.6 mph73%29.86 "HgN/A
2:50 PM70 °FPartly sunny.7 mph73%29.89 "HgN/A
2:20 PM68 °FPartly sunny.5 mph78%29.89 "HgN/A
1:50 PM66 °FPartly sunny.5 mph83%29.89 "HgN/A
1:20 PM66 °FPartly sunny.2 mph83%29.89 "HgN/A
12:50 PM66 °FPartly sunny.2 mph83%29.89 "HgN/A
12:20 PM64 °FScattered clouds.3 mph83%29.92 "HgN/A
11:50 AM64 °FScattered clouds.3 mph83%29.92 "HgN/A
11:20 AM64 °FPartly sunny.6 mph83%29.92 "HgN/A
10:50 AM64 °FPartly sunny.7 mph88%29.92 "HgN/A
10:20 AM64 °FPartly sunny.5 mph83%29.92 "HgN/A
9:50 AM63 °FPartly sunny.3 mph88%29.92 "HgN/A
9:20 AM63 °FPartly sunny.5 mph94%29.92 "HgN/A
8:50 AM63 °FPartly sunny.5 mph88%29.92 "HgN/A
8:20 AM63 °FPartly sunny.2 mph88%29.92 "HgN/A
7:50 AM61 °FScattered clouds.1 mph94%29.92 "HgN/A
7:20 AM59 °FPassing clouds.2 mph94%29.92 "HgN/A
6:50 AM57 °FClear.1 mph100%29.92 "Hg10 mi
6:20 AM57 °FPassing clouds.2 mph94%29.92 "HgN/A
5:50 AM57 °FCool.1 mph100%29.92 "Hg4 mi
5:20 AM57 °FFog.1 mph100%29.92 "Hg2 mi
4:50 AM57 °FCool.1 mph100%29.92 "Hg4 mi
4:20 AM59 °FCool.2 mph94%29.92 "Hg6 mi
3:50 AM59 °FCool.3 mph94%29.92 "Hg6 mi
3:20 AM59 °FCool.2 mph94%29.92 "Hg5 mi
Weather by CustomWeather, © 2014

See weather overviewHow to use our weather pages